星链-3072 (STARLINK-3072 )

导读 | 豆包AI

STARLINK-3072是美国SpaceX星链项目的卫星,于北京时间2021年9月14日发射入轨,属于星链低轨互联网星座组网卫星。星链计划旨在为全球提供高速低延迟互联网服务,该卫星承担天地组网链路,支撑星座的通信覆盖能力,是星链大规模部署进程中的一颗标准组网卫星。

Basic Information
目录编号:
49153
目录名称:
STARLINK-3072
国际标识:
2021-082Z
轨道中心:
EARTH
卫星名称:
星链-3072
卫星全名:
星链-3072 (STARLINK-3072 )
卫星状态:
在轨 (已飞行1642 天)
发射日期:
2021-09-14 UTC
国别 :
美国 (US)
星等 :
--
Orbit Information
数据来源 国际轨道数据 AOE轨道数据
星历时间 2026-03-14T05:45:54+0800
22小时前
查看轨道信息
2026-03-13T17:00:00+0800
1天前
查看轨道信息
半长轴 6950.176km 6950.192km
偏心率 0.0002735 0.0002932
轨道倾角 69.999° 70.000°
近地点辐角 272.412° 276.724°
升交点赤经 243.820° 245.160°
平近点角 87.673° 95.238°
近地点 570.138km 570.017km
远地点 573.94km 574.093km
周期 96.107分钟 96.107分钟
每日圈数 14.983355 14.983306
Detailed Information
固有亮度:
5
最大亮度:
2.5
卫星平台:
Starlink v1.5
覆盖范围:
全球
运营商:
太空探索技术公司
运营商所在国:
美国
制造商(研发单位):
太空探索技术公司
制造商所在国:
美国
使用方式:
暂无
Satellite Introduction
星链(Starlink)计划是由太空探索技术公司(SpaceX)提出的一个巨型低轨卫星互联网星座项目,计划在2019年至2024年间在太空搭建由约1.2万颗卫星组成的“星链”网络,其中1584颗将部署在地球上空550千米处的近地轨道,并从2020年开始工作。该卫星仍在工作。
2D Orbit Map
3D Orbit Map
Orbit Altitude Analysis Chart
Orbit Inclination Analysis Chart
Orbit Comprehensive Analysis Chart
View Comprehensive Chart